Location: Unspecified
(0.0000°N, 0.0000°E)
Time: 00:06:23
(UTC+00:00)

Envisat - Pass Details

Date: 16 February 2020
Orbit: 764 x 766 km, 98.1° (Epoch: 25 February)

Event Time Altitude Azimuth Distance (km) Brightness Sun altitude
Rises 18:37:49 0° 181° (S) 3,231 6.4 -5.8°
Reaches altitude 10° 18:40:13 10° 187° (S) 2,303 5.8 -6.4°
Maximum altitude 18:45:01 43° 258° (WSW) 1,063 4.5 -7.6°
Drops below altitude 10° 18:49:48 10° 329° (NNW) 2,293 5.7 -8.7°
Sets 18:52:11 0° 336° (NNW) 3,216 6.4 -9.3°
